Weather History for Crestview, FL

Change the Weather History Date:

Monday, October 8, 2012

  Actual Average Record
Temperature  
Mean Temperature 65 °F -  
Max Temperature 77 °F - - ()
Min Temperature 53 °F - - ()
Growing Degree Days 15 (Base 50)    
Moisture  
Dew Point 54 °F    
Average Humidity 70    
Maximum Humidity 87    
Minimum Humidity 48    
Precipitation  
Precipitation 0.00 in - - ()
Sea Level Pressure  
Sea Level Pressure 30.06 in    
Wind  
Wind Speed 7 mph (North)    
Max Wind Speed 10 mph    
Max Gust Speed -    
Visibility 10 miles    
Events      
T = Trace of Precipitation, MM = Missing Value Source: NWS Daily Summary

Daily Weather History Graph

Daily Weather History Graph

Search for Another Location

Airport:

Trip Planner

Search our weather history database for the weather conditions in past years. The results will help you decide how hot, cold, wet, or windy it might be!

Date:

Astronomy

Oct. 08, 2012 Rise Set
Actual Time 6:44 AM CDT 6:22 PM CDT
Civil Twilight 6:20 AM CDT 6:46 PM CDT
Nautical Twilight 5:52 AM CDT 7:14 PM CDT
Astronomical Twilight 5:24 AM CDT 7:42 PM CDT
Moon No Moon Rise 1:46 PM CDT (10/8)
Length of Visible Light 12h 26m
Length of Day
11h 37m
Last Quarter, 46% of the Moon is Illuminated
Oct 8
Last Quarter
Oct 15
New
Oct 21
First Quarter
Oct 29
Full
Nov 6
Last Quarter

Hourly Weather History & Observations

Time (CDT) Temp. Dew Point Humidity Pressure Visibility Wind Dir Wind Speed Gust Speed Precip Events Conditions
12:55 AM 57.6 °F 52.9 °F 84% 30.06 in 10.0 mi North 6.9 mph - N/A   Clear
1:55 AM 56.5 °F 52.2 °F 85% 30.06 in 10.0 mi North 6.9 mph - N/A   Clear
2:55 AM 55.6 °F 51.3 °F 85% 30.05 in 10.0 mi North 6.9 mph - N/A   Clear
3:55 AM 55.4 °F 50.9 °F 85% 30.04 in 10.0 mi North 5.8 mph - N/A   Scattered Clouds
4:55 AM 55.6 °F 50.4 °F 83% 30.03 in 10.0 mi North 6.9 mph - N/A   Mostly Cloudy
5:55 AM 55.6 °F 50.2 °F 82% 30.05 in 10.0 mi North 5.8 mph - N/A   Scattered Clouds
6:55 AM 53.6 °F 49.8 °F 87% 30.07 in 10.0 mi NNW 3.5 mph - N/A   Clear
7:55 AM 54.9 °F 50.5 °F 85% 30.08 in 10.0 mi North 4.6 mph - N/A   Partly Cloudy
8:55 AM 58.5 °F 50.5 °F 75% 30.09 in 10.0 mi NNW 6.9 mph - N/A   Partly Cloudy
9:55 AM 66.2 °F 53.1 °F 63% 30.11 in 10.0 mi NNW 9.2 mph - N/A   Clear
10:55 AM 69.6 °F 55.0 °F 60% 30.10 in 10.0 mi North 8.1 mph - N/A   Clear
11:55 AM 73.4 °F 55.6 °F 54% 30.08 in 10.0 mi NNW 8.1 mph - N/A   Clear
12:55 PM 75.4 °F 56.3 °F 51% 30.06 in 10.0 mi NNW 10.4 mph - N/A   Clear
1:55 PM 77.4 °F 56.7 °F 49% 30.04 in 10.0 mi North 10.4 mph - N/A   Clear
2:55 PM 77.4 °F 56.1 °F 48% 30.02 in 10.0 mi NNE 10.4 mph - N/A   Clear
3:55 PM 77.4 °F 56.3 °F 48% 30.02 in 10.0 mi North 10.4 mph - N/A   Clear
4:55 PM 76.5 °F 56.7 °F 50% 30.02 in 10.0 mi North 10.4 mph - N/A   Clear
5:55 PM 73.8 °F 57.4 °F 56% 30.04 in 10.0 mi North 5.8 mph - N/A   Clear
6:55 PM 68.2 °F 56.5 °F 66% 30.05 in 10.0 mi NNW 6.9 mph - N/A   Clear
7:55 PM 65.7 °F 55.2 °F 69% 30.07 in 10.0 mi NNW 6.9 mph - N/A   Clear
8:55 PM 63.0 °F 54.1 °F 73% 30.09 in 10.0 mi NNW 4.6 mph - N/A   Clear
9:55 PM 61.0 °F 53.1 °F 75% 30.10 in 10.0 mi NNW 5.8 mph - N/A   Clear
10:55 PM 58.5 °F 52.9 °F 82% 30.09 in 10.0 mi North 4.6 mph - N/A   Clear
11:55 PM 57.2 °F 52.3 °F 84% 30.09 in 10.0 mi North 4.6 mph - N/A   Clear